Location: Cassano d�Adda
(45.5333°N, 9.5167°E)
Time: 21:18:06
(UTC+00:00)

Cosmos 2279 Rocket - Pass Details

Date: 08 December 2019
Orbit: 964 x 979 km, 82.9° (Epoch: 26 January)

Event Time Altitude Azimuth Distance (km) Brightness Sun altitude
Rises 16:22:26 0° 351° (N) 3,686 6.9 -7.6°
Reaches altitude 10° 16:24:57 10° 352° (N) 2,736 6.2 -8.0°
Maximum altitude 16:31:14 90° 32° (NNE) 985 4.1 -9.0°
Drops below altitude 10° 16:37:30 10° 174° (S) 2,722 6.6 -10.0°
Sets 16:40:00 0° 174° (S) 3,665 7.2 -10.4°
